Regional Weather Roundup
Issued by NWS

Home | Current Version | Previous Version | Graphics & Text | Print | Product List | Glossary On
Versions: 1 2 3 4 5 6 7 8 9 10 11 12 13 14 15 16 17 18 19 20 21 22 23 24 25 26 27 28 29 30 31 32 33 34 35 36 37 38 39 40 41 42 43 44 45 46 47 48 49 50
870
ASUS44 KMEG 160510
RWRTN
TENNESSEE HOURLY STATE WEATHER ROUNDUP
NATIONAL WEATHER SERVICE MEMPHIS TN
1100 PM CST SUN JAN 15 2017

TNZ002-004-019-021-049-052-054-088>092-160600-
WEST TENNESSEE

CITY           SKY/WX    TMP DP  RH WIND       PRES   REMARKS
MEMPHIS INTL   MOCLDY    53  52  96 E5        30.15F
NWS MEMPHIS      N/A     51 N/A N/A MISG        N/A
JACKSON        CLOUDY    51  51 100 E7        30.19F FOG
DYERSBURG      CLOUDY    46  45  93 E6        30.19F VSB 1
UNION CITY     CLOUDY   N/A N/A N/A CALM      30.20F
PARIS          CLOUDY    43  43 100 CALM      30.21F
HUNTINGDON     CLOUDY    46  46 100 CALM      30.20S FOG
$$

TNZ008-025-027-028-033-062-065-066-160600-
NORTH MIDDLE TENNESSEE

CITY           SKY/WX    TMP DP  RH WIND       PRES   REMARKS
NASHVILLE      MOCLDY    51  48  89 N5        30.25F
PORTLAND       FOG       45  45 100 CALM      30.26S VSB 1/4
CLARKSVILLE    FOG       46  44  93 E6        30.24F VSB 1/4
SMYRNA         MOCLDY    50  48  93 NW3       30.26F
GALLATIN       CLOUDY    48  48 100 NE5       30.29S FOG
CROSSVILLE     CLOUDY    52  51  97 CALM      30.27F
$$

TNZ061-075-076-078-094-096-097-160600-
SOUTH MIDDLE TENNESSEE

CITY           SKY/WX    TMP DP  RH WIND       PRES   REMARKS
FAYETTEVILLE   CLOUDY    57  55  94 NE5       30.23F
TULLAHOMA      CLEAR     52  50  93 CALM      30.25S
WINCHESTER       N/A     52  50  93 CALM      30.25R
MCMINNVILLE    PTCLDY    54  54 100 NE3       30.25S
COLUMBIA       CLEAR    N/A N/A N/A NE3       30.22F
SHELBYVILLE    CLEAR     52  52 100 CALM      30.25S
$$

TNZ017-018-042-046-047-160600-
NORTHEAST TENNESSEE

CITY           SKY/WX    TMP DP  RH WIND       PRES   REMARKS
TRI CITIES     CLOUDY    55  53  93 CALM      30.27F
ELIZABETHTON   CLOUDY    55  54  94 CALM      30.27F
$$

TNZ012-013-036-069-073-074-160600-
CENTRAL EAST TENNESSEE

CITY           SKY/WX    TMP DP  RH WIND       PRES   REMARKS
KNOXVILLE      FOG       54  53  97 NE5       30.24F VSB 1/16
OAK RIDGE      CLOUDY    55  52  89 CALM      30.27S
GATLINBURG     CLOUDY    54  54 100 E3        30.25F VSB 1/4
MORRISTOWN     FOG       54  54 100 CALM      30.26S VSB 0
JACKSBORO      CLOUDY    54  54 100 CALM      30.30S
$$

TNZ083-085-099-160600-
SOUTHEAST TENNESSEE

CITY           SKY/WX    TMP DP  RH WIND       PRES   REMARKS
CHATTANOOGA    CLOUDY    55  51  86 CALM      30.24S
$$

SKY/WX REPORTED AS FAIR MEANS FEW OR NO CLOUDS BELOW
12 THOUSAND FEET.





USA.gov is the U.S. government's official web portal to all federal, state and local government web resources and services.